TimeCST,TemperatureF,Dew PointF,Humidity,Sea Level PressureIn,VisibilityMPH,Wind Direction,Wind SpeedMPH,Gust SpeedMPH,PrecipitationIn,Events,Conditions,WindDirDegrees,DateUTC
12:52 AM,61.0,30.9,32,29.91,10.0,South,12.7,-,N/A,,Clear,180,2014-01-13 06:52:00
1:52 AM,53.1,30.9,43,29.91,10.0,South,18.4,24.2,N/A,,Clear,190,2014-01-13 07:52:00
2:52 AM,53.1,32.0,45,29.90,10.0,SSW,15.0,-,N/A,,Mostly Cloudy,200,2014-01-13 08:52:00
3:52 AM,51.1,36.0,56,29.86,10.0,South,16.1,23.0,0.00,Rain,Light Rain,190,2014-01-13 09:52:00
4:52 AM,53.1,34.0,48,29.88,10.0,SSW,10.4,-,0.00,,Overcast,210,2014-01-13 10:52:00
5:52 AM,59.0,39.9,49,29.87,10.0,SSW,17.3,27.6,0.02,,Overcast,200,2014-01-13 11:52:00
6:52 AM,62.1,42.1,48,29.87,10.0,SSW,16.1,29.9,N/A,,Overcast,200,2014-01-13 12:52:00
7:52 AM,60.1,43.0,53,29.86,10.0,South,21.9,28.8,N/A,,Mostly Cloudy,190,2014-01-13 13:52:00
8:52 AM,57.9,45.0,62,29.88,4.0,South,17.3,27.6,0.06,Rain,Light Rain,190,2014-01-13 14:52:00
9:22 AM,60.8,44.6,55,29.89,10.0,South,16.1,-,0.04,Rain,Light Rain,190,2014-01-13 15:22:00
9:33 AM,60.8,44.6,55,29.88,9.0,South,16.1,-,0.05,Rain,Light Rain,190,2014-01-13 15:33:00
9:52 AM,61.0,46.0,58,29.86,10.0,South,12.7,23.0,0.08,Rain,Light Rain,190,2014-01-13 15:52:00
10:52 AM,63.0,46.9,56,29.84,10.0,South,10.4,-,0.04,Rain,Light Rain,190,2014-01-13 16:52:00
11:52 AM,64.9,48.0,54,29.79,7.0,South,15.0,18.4,0.06,Rain,Light Rain,190,2014-01-13 17:52:00
12:28 PM,66.2,48.2,52,29.79,1.8,WSW,6.9,-,0.07,Rain,Rain,250,2014-01-13 18:28:00
12:52 PM,69.1,48.9,49,29.77,3.0,South,9.2,-,0.14,Rain,Rain,190,2014-01-13 18:52:00
1:18 PM,68.0,50.0,52,29.77,5.0,SSW,9.2,-,0.05,Rain,Light Rain,200,2014-01-13 19:18:00
1:35 PM,69.8,50.0,49,29.77,10.0,SSW,10.4,-,0.05,Rain,Light Rain,210,2014-01-13 19:35:00
1:52 PM,69.1,50.0,51,29.75,6.0,SSW,10.4,-,0.06,Rain,Light Rain,200,2014-01-13 19:52:00
2:52 PM,71.1,50.0,47,29.75,7.0,SSW,9.2,-,0.02,Rain,Light Rain,210,2014-01-13 20:52:00
3:05 PM,51.8,50.0,94,29.76,9.0,SW,9.2,-,0.00,Rain,Light Rain,220,2014-01-13 21:05:00
3:52 PM,-9999,-9999,N/A,29.76,10.0,SSW,6.9,-,0.01,,Overcast,200,2014-01-13 21:52:00
4:47 PM,51.8,50.0,94,29.77,4.0,SW,5.8,-,0.00,,Overcast,220,2014-01-13 22:47:00
4:52 PM,52.0,50.0,93,29.77,3.0,SW,6.9,-,0.00,,Overcast,220,2014-01-13 22:52:00
5:05 PM,51.8,50.0,94,29.77,3.0,SW,8.1,-,N/A,,Overcast,220,2014-01-13 23:05:00
5:52 PM,51.1,50.0,96,29.78,10.0,West,4.6,-,0.02,,Overcast,260,2014-01-13 23:52:00
6:22 PM,51.8,50.0,94,29.80,9.0,West,5.8,-,0.00,Rain,Light Rain,260,2014-01-14 00:22:00
6:40 PM,51.8,50.0,94,29.80,10.0,WSW,5.8,-,0.00,,Overcast,250,2014-01-14 00:40:00
6:47 PM,51.8,50.0,94,29.80,10.0,West,5.8,-,0.00,,Overcast,270,2014-01-14 00:47:00
6:52 PM,51.1,50.0,96,29.80,10.0,West,4.6,-,0.00,,Overcast,270,2014-01-14 00:52:00
7:01 PM,51.8,48.2,88,29.81,10.0,West,4.6,-,N/A,,Overcast,270,2014-01-14 01:01:00
7:34 PM,50.0,48.2,94,29.81,10.0,West,5.8,-,N/A,,Overcast,280,2014-01-14 01:34:00
7:52 PM,50.0,48.9,96,29.81,10.0,West,3.5,-,N/A,,Overcast,280,2014-01-14 01:52:00
7:59 PM,50.0,48.2,94,29.82,10.0,West,4.6,-,N/A,,Overcast,270,2014-01-14 01:59:00
8:38 PM,50.0,48.2,94,29.83,10.0,WNW,5.8,-,N/A,,Overcast,290,2014-01-14 02:38:00
8:52 PM,50.0,48.0,93,29.83,10.0,WNW,8.1,-,N/A,,Overcast,300,2014-01-14 02:52:00
9:10 PM,48.2,46.4,93,29.84,10.0,WNW,5.8,-,N/A,,Overcast,300,2014-01-14 03:10:00
9:52 PM,48.0,46.9,96,29.85,6.0,WNW,3.5,-,N/A,,Overcast,300,2014-01-14 03:52:00
10:09 PM,46.4,46.4,100,29.85,1.8,Calm,Calm,-,N/A,,Mostly Cloudy,0,2014-01-14 04:09:00
10:17 PM,48.2,46.4,93,29.85,3.0,Calm,Calm,-,N/A,,Mostly Cloudy,0,2014-01-14 04:17:00
10:27 PM,48.2,46.4,93,29.85,1.8,West,3.5,-,N/A,,Overcast,280,2014-01-14 04:27:00
10:52 PM,46.0,46.0,100,29.85,0.8,West,4.6,-,N/A,,Mostly Cloudy,270,2014-01-14 04:52:00
11:11 PM,44.6,44.6,100,29.85,1.5,West,5.8,-,N/A,,Partly Cloudy,280,2014-01-14 05:11:00
11:25 PM,44.6,44.6,100,29.85,2.5,West,5.8,-,0.01,,Partly Cloudy,280,2014-01-14 05:25:00
11:33 PM,44.6,42.8,93,29.85,0.8,WNW,5.8,-,0.01,,Partly Cloudy,290,2014-01-14 05:33:00
11:41 PM,44.6,42.8,93,29.85,0.5,West,9.2,-,0.01,Fog,Fog,280,2014-01-14 05:41:00
11:52 PM,45.0,45.0,100,29.86,0.2,WNW,9.2,-,0.01,Fog,Fog,300,2014-01-14 05:52:00